TimeCDT,TemperatureF,Dew PointF,Humidity,Sea Level PressureIn,VisibilityMPH,Wind Direction,Wind SpeedMPH,Gust SpeedMPH,PrecipitationIn,Events,Conditions,WindDirDegrees,DateUTC
12:53 AM,61.0,48.9,64,29.78,10.0,South,9.2,-,N/A,,Partly Cloudy,180,2012-10-16 05:53:00
1:53 AM,59.0,48.9,69,29.77,10.0,South,10.4,-,N/A,,Partly Cloudy,180,2012-10-16 06:53:00
2:53 AM,60.1,50.0,69,29.75,10.0,South,11.5,-,N/A,,Clear,190,2012-10-16 07:53:00
3:53 AM,59.0,50.0,72,29.73,10.0,South,10.4,-,N/A,,Clear,180,2012-10-16 08:53:00
4:53 AM,55.9,48.9,77,29.73,10.0,South,9.2,-,N/A,,Clear,180,2012-10-16 09:53:00
5:53 AM,55.9,48.9,77,29.72,10.0,ESE,10.4,-,N/A,,Partly Cloudy,107,2012-10-16 10:53:00
6:53 AM,55.4,48.2,77,29.76,10.0,South,8.1,-,N/A,,Clear,180,2012-10-16 11:53:00
7:53 AM,54.0,48.0,80,29.74,10.0,South,8.1,-,N/A,,Scattered Clouds,180,2012-10-16 12:53:00
8:53 AM,60.1,48.9,67,29.73,10.0,South,12.7,-,N/A,,Scattered Clouds,180,2012-10-16 13:53:00
9:53 AM,66.0,48.9,54,29.73,10.0,SSW,13.8,-,N/A,,Mostly Cloudy,200,2012-10-16 14:53:00
10:53 AM,70.0,48.9,47,29.72,10.0,SSW,15.0,20.7,N/A,,Mostly Cloudy,200,2012-10-16 15:53:00
11:53 AM,73.9,48.9,41,29.70,10.0,SW,16.1,-,N/A,,Scattered Clouds,220,2012-10-16 16:53:00
12:53 PM,77.0,50.0,39,29.68,10.0,SSW,10.4,21.9,N/A,,Scattered Clouds,210,2012-10-16 17:53:00
1:53 PM,79.0,51.1,38,29.63,10.0,South,12.7,-,N/A,,Partly Cloudy,180,2012-10-16 18:53:00
2:53 PM,80.1,51.1,36,29.58,10.0,South,16.1,-,N/A,,Clear,190,2012-10-16 19:53:00
3:53 PM,81.0,52.0,36,29.55,10.0,SW,16.1,21.9,N/A,,Clear,220,2012-10-16 20:53:00
4:53 PM,82.0,53.1,37,29.54,10.0,SSW,16.1,-,N/A,,Partly Cloudy,200,2012-10-16 21:53:00
5:53 PM,80.1,53.1,39,29.53,10.0,SSW,13.8,-,N/A,,Partly Cloudy,200,2012-10-16 22:53:00
6:53 PM,75.0,54.0,48,29.52,10.0,South,10.4,-,N/A,,Scattered Clouds,190,2012-10-16 23:53:00
7:53 PM,72.0,55.0,55,29.52,10.0,South,11.5,-,N/A,,Scattered Clouds,180,2012-10-17 00:53:00
8:53 PM,69.1,55.0,61,29.52,10.0,South,11.5,-,N/A,,Scattered Clouds,180,2012-10-17 01:53:00
9:53 PM,70.0,55.0,59,29.51,10.0,South,12.7,-,N/A,,Scattered Clouds,190,2012-10-17 02:53:00
10:53 PM,66.0,55.9,70,29.50,10.0,South,9.2,-,N/A,,Partly Cloudy,170,2012-10-17 03:53:00
11:53 PM,66.0,55.9,70,29.48,10.0,SSE,13.8,-,N/A,,Scattered Clouds,160,2012-10-17 04:53:00